This is the latest recevied weather packets stored in our database for station/object K7KAZ. If no packets are shown the sender has not sent any weather packets the latest 10 day(s).
| Time | Temp. | Humidity | Pressure | Rain* | Wind** | Luminosity | Snow |
|---|---|---|---|---|---|---|---|
| 1778075985 | 18.33° C | 42% | 1018.5 hPa | 0 mm | - | 114 W/m² | - |
| 1778075683 | 18.89° C | 41% | 1018.3 hPa | 0 mm | - | 103 W/m² | - |
| 1778075379 | 18.33° C | 43% | 1018.1 hPa | 0 mm | - | 89 W/m² | - |
| 1778075075 | 17.78° C | 44% | 1018.2 hPa | 0 mm | - | 81 W/m² | - |
| 1778074772 | 17.78° C | 44% | 1018 hPa | 0 mm | - | 66 W/m² | - |
| 1778074469 | 17.22° C | 45% | 1017.9 hPa | 0 mm | - | 49 W/m² | - |
| 1778074166 | 16.67° C | 46% | 1017.9 hPa | 0 mm | - | 43 W/m² | - |
| 1778073863 | 15.56° C | 48% | 1017.7 hPa | 0 mm | - | 38 W/m² | - |
| 1778073561 | 15.56° C | 48% | 1017.9 hPa | 0 mm | - | 33 W/m² | - |
| 1778073257 | 15° C | 48% | 1017.7 hPa | 0 mm | - | 28 W/m² | - |
| 1778072954 | 14.44° C | 50% | 1017.7 hPa | 0 mm | - | 26 W/m² | - |
| 1778072650 | 14.44° C | 50% | 1017.9 hPa | 0 mm | - | 21 W/m² | - |
| 1778072349 | 15° C | 49% | 1017.6 hPa | 0 mm | - | 16 W/m² | - |
| 1778072047 | 13.89° C | 51% | 1017.2 hPa | 0 mm | - | 12 W/m² | - |
| 1778071745 | 13.89° C | 53% | 1017.3 hPa | 0 mm | - | 9 W/m² | - |
| 1778071441 | 13.89° C | 52% | 1017.2 hPa | 0 mm | - | 4 W/m² | - |
| 1778071139 | 13.89° C | 52% | 1017.3 hPa | 0 mm | - | 1 W/m² | - |
| 1778070837 | 13.89° C | 52% | 1017.1 hPa | 0 mm | - | 0 W/m² | - |
| 1778070534 | 13.89° C | 51% | 1017.1 hPa | 0 mm | - | 0 W/m² | - |
| 1778070231 | 14.44° C | 50% | 1016.9 hPa | 0 mm | - | 0 W/m² | - |
| 1778069929 | 14.44° C | 49% | 1017.1 hPa | 0 mm | - | 0 W/m² | - |
| 1778069626 | 15° C | 48% | 1017 hPa | 0 mm | - | 0 W/m² | - |
| 1778069323 | 14.44° C | 49% | 1017.1 hPa | 0 mm | - | 0 W/m² | - |
| 1778069021 | 14.44° C | 50% | 1016.9 hPa | 0 mm | - | 0 W/m² | - |
| 1778068718 | 13.89° C | 51% | 1016.8 hPa | 0 mm | - | 0 W/m² | - |
* Rain latest hour (hover to see other rain measurements)
** Current wind speed in m/s (hover to see current wind gust speed)